Tracking 22441 objects as of 28-Feb-2021
HD Live streaming from Space Station
objects crossing your sky now

DELTA 1 DEB

Track DELTA 1 DEB now!
10-day predictions


NORAD ID: 21287
Int'l Code: 1975-052Y
Perigee: 1,100.5 km
Apogee: 1,299.8 km
Inclination: 99.8 °
Period: 109.3 minutes
Semi major axis: 7571 km
RCS: 0.2374 m2 (medium)
Launch date: June 12, 1975
Source: United States (US)
Launch site: AIR FORCE WESTERN TEST RANGE (AFWTR)

Note: This is SATELLITE DEBRIS
aabbcc
Your satellite tracking list
Your tracking list is empty




NASA's NSSDC Master Catalog

Two Line Element Set (TLE):
1 21287U 75052Y   21059.63556927  .00000009  00000-0  11884-3 0  9993
2 21287  99.8113 328.6993 0131625 113.2575   2.6524 13.17829803434715
Source of the keplerian elements: AFSPC